Orbit No.,Time of Periapse UTC,,Time of Apoapsis UCT ,,Solar Longitude,Solar Latitude,Spacecraft Longitude,Spacecraft Latitude,Altitude,Solar Distance ,Martian Year,Ls,Notes 
2,2014 Sep 23,13:03:46,2014 Sep 24,6:34:36,262.36,-8.84,336.13,28.54,382.28,213043878.8,32,201.0,
3,2014 SEP 24,23:59:56,2014 SEP 25,17:25:37,112.38,-9.18,185.23,28.65,204.58,212828103.6,32,201.9,
4,2014 SEP 26,10:51:14,2014 SEP 27,4:14:04,323.60,-9.53,35.52,28.75,203.97,212615678.6,32,202.9,
5,2014 SEP 27,21:37:11,2014 SEP 28,0:20:12,176.11,-9.87,247.50,27.79,200.39,212406684.6,32,203.8,
6,2014 SEP 28,3:03:39,2014 SEP 28,5:47:11,96.69,-9.92,167.20,29.49,197.46,212374239.9,32,203.9,
7,2014 SEP 28,8:30:38,2014 SEP 28,11:14:08,17.14,-9.97,87.37,29.63,196.73,212341817.6,32,204.1,
8,2014 SEP 28,13:57:34,2014 SEP 28,16:41:07,297.60,-10.03,7.54,29.76,197.52,212309471.2,32,204.2,
9,2014 SEP 28,19:24:35,2014 SEP 28,22:08:04,218.04,-10.08,287.70,29.88,197.57,212277190.5,32,204.4,
10,2014 SEP 29,0:51:29,2014 SEP 29,3:35:02,138.51,-10.13,207.88,30.03,197.38,212244993,32,204.5,
11,2014 SEP 29,6:18:31,2014 SEP 29,9:02:02,58.95,-10.19,128.01,30.14,197.49,212212857.1,32,204.6,
12,2014 SEP 29,11:45:28,2014 SEP 29,14:29:00,339.41,-10.24,48.20,30.26,196.86,212180800.7,32,204.8,
13,2014 SEP 29,17:12:28,2014 SEP 29,19:56:00,259.86,-10.29,328.35,30.40,197.90,212148815.4,32,204.9,
14,2014 SEP 29,22:39:28,2014 SEP 30,1:23:00,180.30,-10.34,248.51,30.53,197.27,212116902.9,32,205.1,
15,2014 SEP 30,4:06:28,2014 SEP 30,6:49:59,100.75,-10.40,168.68,30.61,198.16,212085065.1,32,205.2,
16,2014 SEP 30,9:33:26,2014 SEP 30,12:16:57,21.20,-10.45,88.85,30.75,197.46,212053303.2,32,205.4,
17,2014 SEP 30,15:00:23,2014 SEP 30,17:43:56,301.66,-10.50,9.02,30.87,198.18,212021619,32,205.5,
18,2014 SEP 30,20:27:24,2014 SEP 30,23:10:54,222.10,-10.56,289.17,31.00,198.28,211990002.4,32,205.7,
19,2014 OCT 1,1:54:19,2014 OCT 1,4:37:52,142.57,-10.61,209.35,31.14,198.05,211958470.6,32,205.7,
20,2014 OCT 1,7:21:21,2014 OCT 1,10:04:53,63.01,-10.66,129.48,31.25,198.23,211927002,32,205.8,
21,2014 OCT 1,12:48:19,2014 OCT 1,15:31:52,343.46,-10.71,49.66,31.38,197.55,211895614.6,32,206.0,
22,2014 OCT 1,18:15:19,2014 OCT 1,20:58:52,263.91,-10.77,329.81,31.52,198.62,211864300.3,32,206.1,
23,2014 OCT 1,23:42:20,2014 OCT 2,2:25:53,184.35,-10.82,249.96,31.64,198.00,211833060.4,32,206.3,
24,2014 OCT 2,5:09:20,2014 OCT 2,7:52:52,104.80,-10.87,170.13,31.72,198.87,211801898.3,32,206.4,
25,2014 OCT 2,10:36:19,2014 OCT 2,13:19:50,25.25,-10.93,90.30,31.86,198.20,211770813.3,32,206.5,
26,2014 OCT 2,16:03:16,2014 OCT 2,18:46:49,305.71,-10.98,10.46,31.99,198.86,211739807.9,32,206.7,
27,2014 OCT 2,21:30:28,2014 OCT 2,23:49:06,226.11,-11.03,290.79,31.55,196.55,211708855,32,206.8,
28,2014 OCT 3,2:07:48,2014 OCT 3,4:26:39,158.64,-11.07,222.83,32.25,194.34,211682679.4,32,206.9,
29,2014 OCT 3,6:45:25,2014 OCT 3,9:04:14,91.10,-11.12,155.01,32.32,195.21,211656533.5,32,207.0,
30,2014 OCT 3,11:22:59,2014 OCT 3,13:41:48,23.58,-11.16,87.21,32.46,194.53,211630446.7,32,207.2,
31,2014 OCT 3,16:00:31,2014 OCT 3,18:19:22,316.06,-11.21,19.40,32.59,194.96,211604418.8,32,207.3,
32,2014 OCT 3,20:38:07,2014 OCT 3,22:56:56,248.53,-11.25,311.58,32.74,195.68,211578441.1,32,207.4,
33,2014 OCT 4,1:15:40,2014 OCT 4,3:34:30,181.00,-11.30,243.77,32.89,194.98,211552523.3,32,207.5,
34,2014 OCT 4,5:53:14,2014 OCT 4,8:12:04,113.48,-11.34,175.97,32.98,195.85,211526659.8,32,207.6,
35,2014 OCT 4,10:30:49,2014 OCT 4,12:49:38,45.95,-11.39,108.15,33.12,195.43,211500851.4,32,207.7,
36,2014 OCT 4,15:08:21,2014 OCT 4,17:27:11,338.43,-11.43,40.36,33.25,195.09,211475103.5,32,207.9,
37,2014 OCT 4,19:45:55,2014 OCT 4,22:04:45,270.90,-11.47,332.54,33.39,196.19,211449408.6,32,208.0,
38,2014 OCT 5,0:23:30,2014 OCT 5,2:42:18,203.37,-11.52,264.72,33.53,195.70,211423769,32,208.1,
39,2014 OCT 5,5:01:01,2014 OCT 5,7:19:51,135.86,-11.56,196.94,33.66,195.93,211398192.3,32,208.2,
40,2014 OCT 5,9:38:36,2014 OCT 5,11:57:25,68.33,-11.61,129.09,33.80,195.90,211372666.1,32,208.3,
41,2014 OCT 5,14:16:08,2014 OCT 5,16:34:57,0.81,-11.65,61.31,33.93,195.12,211347201.1,32,208.5,
42,2014 OCT 5,18:53:40,2014 OCT 5,21:12:30,293.29,-11.70,353.50,34.07,196.23,211321793,32,208.6,
43,2014 OCT 5,23:31:00,2014 OCT 6,1:49:32,225.83,-11.74,285.74,34.21,179.91,211296460.4,32,208.7,
44,2014 OCT 6,4:07:59,2014 OCT 6,6:26:36,158.44,-11.78,218.07,34.37,179.56,211271215.9,32,208.8,
45,2014 OCT 6,8:45:06,2014 OCT 6,11:03:41,91.03,-11.83,150.35,34.45,180.30,211246018,32,208.9,
46,2014 OCT 6,13:22:10,2014 OCT 6,15:40:44,23.62,-11.87,82.68,34.59,179.60,211220881.2,32,209.0,
47,2014 OCT 6,17:59:12,2014 OCT 6,20:17:48,316.23,-11.92,14.99,34.72,180.17,211195804.5,32,209.2,
48,2014 OCT 6,22:36:17,2014 OCT 7,0:54:51,248.82,-11.96,307.28,34.87,180.79,211170779.9,32,209.3,
49,2014 OCT 7,3:13:20,2014 OCT 7,5:31:55,181.42,-12.00,239.60,35.02,180.09,211145817.8,32,209.4,
50,2014 OCT 7,7:50:24,2014 OCT 7,10:08:59,114.02,-12.05,171.91,35.11,181.02,211120910.4,32,209.5,
51,2014 OCT 7,12:27:28,2014 OCT 7,14:46:02,46.61,-12.09,104.21,35.26,180.56,211096060.7,32,209.6,
52,2014 OCT 7,17:04:30,2014 OCT 7,19:23:05,339.22,-12.13,36.54,35.38,180.30,211071273,32,209.7,
53,2014 OCT 7,21:41:34,2014 OCT 8,0:00:09,271.81,-12.18,328.83,35.53,181.38,211046539.7,32,209.9,
54,2014 OCT 8,2:18:39,2014 OCT 8,4:37:12,204.41,-12.22,261.14,35.67,180.82,211021864.1,32,210.0,
55,2014 OCT 8,6:55:39,2014 OCT 8,9:14:14,137.02,-12.27,193.47,35.79,181.14,210997252.2,32,210.1,
56,2014 OCT 8,11:32:44,2014 OCT 8,13:51:17,69.61,-12.31,125.75,35.93,181.07,210972693.4,32,210.2,
57,2014 OCT 8,16:09:45,2014 OCT 8,18:28:19,2.22,-12.35,58.10,36.06,180.29,210948197.6,32,210.3,
58,2014 OCT 8,20:46:47,2014 OCT 8,23:05:22,294.83,-12.40,350.40,36.20,181.45,210923760,32,210.4,
59,2014 OCT 9,1:23:51,2014 OCT 9,3:42:23,227.42,-12.44,282.70,36.34,181.36,210899377.1,32,210.6,
60,2014 OCT 9,6:00:50,2014 OCT 9,8:19:26,160.04,-12.48,215.03,36.49,181.03,210875060.6,32,210.7,
61,2014 OCT 9,10:37:56,2014 OCT 9,12:56:31,92.63,-12.53,147.30,36.59,181.67,210850793.2,32,210.8,
62,2014 OCT 9,15:15:00,2014 OCT 9,17:33:33,25.23,-12.57,79.63,36.73,180.95,210826588.4,32,210.9,
63,2014 OCT 9,19:52:01,2014 OCT 9,22:10:37,317.84,-12.61,11.94,36.86,181.60,210802445.4,32,211.0,
64,2014 OCT 10,0:29:07,2014 OCT 10,2:47:40,250.43,-12.66,304.23,37.01,182.15,210778356.3,32,211.2,
65,2014 OCT 10,5:06:08,2014 OCT 10,7:24:44,183.03,-12.70,236.54,37.17,181.44,210754332,32,211.3,
66,2014 OCT 10,9:43:13,2014 OCT 10,12:01:47,115.63,-12.74,168.85,37.25,182.41,210730363.6,32,211.4,
67,2014 OCT 10,14:20:17,2014 OCT 10,16:38:51,48.23,-12.79,101.15,37.40,181.93,210706455.1,32,211.5,
68,2014 OCT 10,18:57:18,2014 OCT 10,21:15:53,340.84,-12.83,33.48,37.52,181.73,210682610.2,32,211.6,
69,2014 OCT 10,23:34:22,2014 OCT 11,1:52:57,273.43,-12.87,325.77,37.67,182.78,210658821.5,32,211.7,
70,2014 OCT 11,4:11:26,2014 OCT 11,6:30:00,206.03,-12.92,258.07,37.82,182.16,210635092.8,32,211.9,
71,2014 OCT 11,8:48:27,2014 OCT 11,11:07:02,138.64,-12.96,190.40,37.92,182.57,210611428.8,32,212.0,
72,2014 OCT 11,13:25:31,2014 OCT 11,15:44:05,71.24,-13.00,122.68,38.07,182.46,210587820.5,32,212.1,
73,2014 OCT 11,18:02:32,2014 OCT 11,20:21:06,3.85,-13.04,55.02,38.20,181.71,210564276.8,32,212.2,
74,2014 OCT 11,22:39:33,2014 OCT 12,0:58:08,296.46,-13.09,347.32,38.33,182.90,210540792.9,32,212.3,
75,2014 OCT 12,3:16:37,2014 OCT 12,5:35:10,229.06,-13.13,279.62,38.48,182.74,210517365.9,32,212.4,
76,2014 OCT 12,7:53:36,2014 OCT 12,10:12:12,161.68,-13.17,211.95,38.62,182.43,210494006.8,32,212.6,
77,2014 OCT 12,12:30:41,2014 OCT 12,14:49:16,94.27,-13.22,144.22,38.73,182.98,210470699.6,32,212.7,
78,2014 OCT 12,17:07:44,2014 OCT 12,19:26:18,26.87,-13.26,76.55,38.87,182.26,210447456.6,32,212.8,
79,2014 OCT 12,21:44:46,2014 OCT 13,0:03:21,319.48,-13.30,8.85,39.00,182.97,210424276.8,32,212.9,
80,2014 OCT 13,2:21:51,2014 OCT 13,4:40:24,252.08,-13.34,301.14,39.15,183.45,210401152.9,32,213.0,
81,2014 OCT 13,6:58:52,2014 OCT 13,9:17:27,184.69,-13.39,233.46,39.30,182.74,210378095.9,32,213.1,
82,2014 OCT 13,11:35:56,2014 OCT 13,13:54:30,117.29,-13.43,165.76,39.38,183.73,210355096,32,213.3,
83,2014 OCT 13,16:12:59,2014 OCT 13,18:31:33,49.89,-13.47,98.06,39.53,183.23,210332158.3,32,213.4,
84,2014 OCT 13,20:50:00,2014 OCT 13,23:08:35,342.50,-13.51,30.38,39.66,183.09,210309285.7,32,213.5,
85,2014 OCT 14,1:27:04,2014 OCT 14,3:45:38,275.10,-13.56,322.67,39.80,184.11,210286471,32,213.6,
86,2014 OCT 14,6:04:07,2014 OCT 14,8:22:40,207.70,-13.60,254.97,39.95,183.44,210263718.5,32,213.7,
87,2014 OCT 14,10:41:07,2014 OCT 14,12:59:42,140.31,-13.64,187.31,40.05,183.94,210241031.7,32,213.8,
88,2014 OCT 14,15:18:11,2014 OCT 14,17:36:44,72.92,-13.68,119.58,40.20,183.80,210218403.2,32,214.0,
89,2014 OCT 14,19:55:11,2014 OCT 14,22:13:45,5.53,-13.73,51.92,40.32,183.07,210195840.6,32,214.1,
90,2014 OCT 15,0:32:12,2014 OCT 15,2:50:47,298.14,-13.77,344.22,40.46,184.29,210173339.4,32,214.3,
91,2014 OCT 15,5:09:16,2014 OCT 15,7:27:48,230.74,-13.81,276.51,40.61,184.07,210150897.4,32,214.4,
92,2014 OCT 15,9:46:14,2014 OCT 15,12:04:49,163.37,-13.85,208.85,40.75,183.80,210128524.7,32,214.5,
93,2014 OCT 15,14:23:18,2014 OCT 15,16:41:52,95.96,-13.90,141.11,40.87,184.26,210106206.5,32,214.7,
94,2014 OCT 15,19:00:20,2014 OCT 15,21:18:53,28.57,-13.94,73.44,41.00,183.53,210083953.9,32,214.8,
95,2014 OCT 15,23:37:21,2014 OCT 16,1:55:56,321.18,-13.98,5.74,41.13,184.30,210061766.2,32,214.9,
96,2014 OCT 16,4:14:25,2014 OCT 16,6:32:58,253.78,-14.02,298.03,41.27,184.71,210039636.3,32,215.0,
97,2014 OCT 16,8:51:25,2014 OCT 16,11:10:00,186.40,-14.06,230.34,41.43,184.01,210017575.1,32,215.1,
98,2014 OCT 16,13:28:28,2014 OCT 16,15:47:02,119.00,-14.11,162.64,41.51,185.02,209995572.6,32,215.2,
99,2014 OCT 16,18:05:31,2014 OCT 16,20:24:04,51.61,-14.15,94.95,41.66,184.50,209973634.3,32,215.4,
100,2014 OCT 16,22:42:31,2014 OCT 17,1:01:05,344.22,-14.19,27.27,41.78,184.42,209951762.4,32,215.5,
101,2014 OCT 17,3:19:34,2014 OCT 17,5:38:08,276.83,-14.23,319.55,41.93,185.40,209929950.1,32,215.6,
102,2014 OCT 17,7:56:36,2014 OCT 17,10:15:10,209.43,-14.27,251.85,42.08,184.67,209908202.3,32,215.7,
103,2014 OCT 17,12:33:36,2014 OCT 17,14:52:10,142.05,-14.31,184.19,42.18,185.29,209886520.9,32,215.8,
104,2014 OCT 17,17:10:39,2014 OCT 17,19:29:12,74.66,-14.36,116.46,42.33,185.11,209864900.3,32,216.0,
105,2014 OCT 17,21:47:38,2014 OCT 18,0:06:12,7.27,-14.40,48.80,42.45,184.41,209843347,32,216.1,
106,2014 OCT 18,2:24:39,2014 OCT 18,4:43:13,299.89,-14.44,341.09,42.58,185.64,209821856.6,32,216.2,
107,2014 OCT 18,7:01:41,2014 OCT 18,9:20:13,232.49,-14.48,273.39,42.73,185.35,209800427.5,32,216.3,
108,2014 OCT 18,11:38:39,2014 OCT 18,13:57:13,165.12,-14.52,205.72,42.86,185.14,209779069,32,216.4,NGMS Comet Siding Springs Observations 
109,2014 OCT 18,16:15:42,2014 OCT 18,18:34:16,97.72,-14.56,137.98,42.99,185.53,209757767.5,32,216.5,NGMS Comet Siding Springs Observations 
110,2014 OCT 18,20:52:43,2014 OCT 18,23:11:16,30.34,-14.61,70.32,43.12,184.78,209736533.1,32,216.7,NGMS Comet Siding Springs Observations 
111,2014 OCT 19,1:29:43,2014 OCT 19,3:48:18,322.96,-14.65,2.61,43.25,185.62,209715365,32,216.8,NGMS Comet Siding Springs Observations 
112,2014 OCT 19,6:06:46,2014 OCT 19,8:25:19,255.56,-14.69,294.90,43.39,185.95,209694256.7,32,216.9,NGMS Comet Siding Springs Observations 
113,2014 OCT 19,10:43:45,2014 OCT 19,13:02:19,188.18,-14.73,227.22,43.55,185.26,209673218.7,32,217.0,NGMS Comet Siding Springs Observations 
114,2014 OCT 19,15:20:48,2014 OCT 19,17:39:21,120.79,-14.77,159.51,43.63,186.28,209652241,32,217.1,NGMS Comet Siding Springs Observations 
115,2014 OCT 19,19:57:49,2014 OCT 19,22:16:22,53.40,-14.81,91.82,43.78,185.74,209631329.3,32,217.3,
116,2014 OCT 20,0:34:48,2014 OCT 20,2:53:22,346.02,-14.85,24.14,43.90,185.74,209610485.5,32,217.4,
117,2014 OCT 20,5:11:50,2014 OCT 20,7:30:24,278.63,-14.89,316.42,44.05,186.68,209589702.9,32,217.5,NGMS Comet Siding Springs Observations 
118,2014 OCT 20,9:48:52,2014 OCT 20,12:07:25,211.24,-14.93,248.72,44.20,185.90,209568986.9,32,217.6,NGMS Comet Siding Springs Observations 
119,2014 OCT 20,14:25:51,2014 OCT 20,16:44:24,143.86,-14.98,181.05,44.29,186.63,209548338.2,32,217.7,NGMS Comet Siding Springs Observations 
120,2014 OCT 20,19:02:53,2014 OCT 20,21:21:25,76.47,-15.02,113.33,44.44,186.42,209527752.3,32,217.8,NGMS Comet Siding Springs Observations 
121,2014 OCT 20,23:39:51,2014 OCT 21,1:58:24,9.09,-15.06,45.67,44.56,185.75,209507235.3,32,218.0,NGMS Comet Siding Springs Observations 
122,2014 OCT 21,4:16:51,2014 OCT 21,6:35:25,301.71,-15.10,337.95,44.70,186.99,209486782.6,32,218.1,NGMS Comet Siding Springs Observations 
123,2014 OCT 21,8:53:53,2014 OCT 21,11:12:24,234.32,-15.14,270.25,44.84,186.64,209466393.1,32,218.2,NGMS Comet Siding Springs Observations 
124,2014 OCT 21,13:30:50,2014 OCT 21,15:49:24,166.95,-15.18,202.58,44.97,186.49,209446075.4,32,218.3,NGMS Comet Siding Springs Observations 
125,2014 OCT 21,18:07:52,2014 OCT 21,20:26:25,99.56,-15.22,134.84,45.10,186.82,209425817.1,32,218.4,NGMS Comet Siding Springs Observations 
126,2014 OCT 21,22:44:52,2014 OCT 22,1:03:24,32.18,-15.26,67.17,45.22,186.05,209405627.4,32,218.6,NGMS Comet Siding Springs Observations 
127,2014 OCT 22,3:21:50,2014 OCT 22,5:40:25,324.80,-15.30,359.47,45.35,186.95,209385505.4,32,218.7,NGMS Comet Siding Springs Observations 
128,2014 OCT 22,7:58:53,2014 OCT 22,10:17:25,257.41,-15.34,291.75,45.50,187.21,209365445.1,32,218.8,NGMS Comet Siding Springs Observations 
129,2014 OCT 22,12:35:50,2014 OCT 22,14:54:24,190.04,-15.38,224.07,45.65,186.54,209345456.6,32,218.9,
130,2014 OCT 22,17:12:52,2014 OCT 22,19:31:25,122.65,-15.42,156.36,45.73,187.58,209325530.1,32,219.0,
131,2014 OCT 22,21:49:52,2014 OCT 23,0:08:24,55.27,-15.46,88.67,45.88,187.02,209305671.3,32,219.1,
132,2014 OCT 23,2:26:50,2014 OCT 23,4:45:24,347.89,-15.50,20.98,46.00,187.08,209285881.8,32,219.3,
133,2014 OCT 23,7:03:51,2014 OCT 23,9:22:24,280.51,-15.54,313.26,46.15,187.98,209266155.1,32,219.4,
134,2014 OCT 23,11:40:51,2014 OCT 23,13:59:24,213.13,-15.58,245.56,46.31,187.15,209246497,32,219.5,
135,2014 OCT 23,16:17:50,2014 OCT 23,18:36:23,145.75,-15.62,177.90,46.38,187.99,209226906.8,32,219.6,
136,2014 OCT 23,20:54:50,2014 OCT 23,23:13:23,78.37,-15.66,110.17,46.54,187.75,209207381.6,32,219.7,
137,2014 OCT 24,1:31:33,2014 OCT 24,3:49:49,11.06,-15.70,42.57,46.65,169.93,209187945,32,219.9,
138,2014 OCT 24,6:07:59,2014 OCT 24,8:26:17,303.81,-15.74,334.98,46.79,171.18,209168593.1,32,220.0,
139,2014 OCT 24,10:44:28,2014 OCT 24,13:02:43,236.56,-15.78,267.41,46.94,170.77,209149306.1,32,220.1,
140,2014 OCT 24,15:20:52,2014 OCT 24,17:39:09,169.32,-15.82,199.87,47.06,170.67,209130091.8,32,220.2,
141,2014 OCT 24,19:57:20,2014 OCT 24,22:15:37,102.07,-15.86,132.25,47.19,170.97,209110939,32,220.3,
142,2014 OCT 25,0:33:47,2014 OCT 25,2:52:02,34.82,-15.90,64.72,47.32,170.17,209091855.9,32,220.4,
143,2014 OCT 25,5:10:12,2014 OCT 25,7:28:29,327.58,-15.94,357.14,47.45,171.12,209072841.9,32,220.6,
144,2014 OCT 25,9:46:41,2014 OCT 25,12:04:56,260.33,-15.98,289.55,47.60,171.34,209053891.2,32,220.7,
145,2014 OCT 25,14:23:05,2014 OCT 25,16:41:21,193.09,-16.02,222.00,47.75,170.67,209035013.4,32,220.8,
146,2014 OCT 25,18:59:32,2014 OCT 25,21:17:48,125.84,-16.06,154.42,47.83,171.73,209016199,32,220.9,
147,2014 OCT 25,23:35:59,2014 OCT 26,1:54:14,58.60,-16.10,86.86,47.98,171.16,208997453.8,32,221.0,
148,2014 OCT 26,4:12:23,2014 OCT 26,6:30:39,351.37,-16.14,19.31,48.09,171.24,208978778.9,32,221.1,
149,2014 OCT 26,8:48:50,2014 OCT 26,11:07:06,284.12,-16.18,311.71,48.24,172.13,208960168.4,32,221.3,
150,2014 OCT 26,13:25:16,2014 OCT 26,15:43:31,216.88,-16.22,244.14,48.40,171.27,208941627.8,32,221.4,
151,2014 OCT 26,18:01:40,2014 OCT 26,20:19:56,149.64,-16.26,176.61,48.48,172.14,208923156.2,32,221.5,
152,2014 OCT 26,22:38:07,2014 OCT 27,0:56:22,82.40,-16.30,109.01,48.63,171.90,208904751.1,32,221.6,
153,2014 OCT 27,3:14:30,2014 OCT 27,5:32:45,15.16,-16.34,41.48,48.74,171.24,208886417.3,32,221.7,
154,2014 OCT 27,7:50:55,2014 OCT 27,10:09:11,307.93,-16.37,333.89,48.89,172.49,208868150.7,32,221.9,
155,2014 OCT 27,12:27:21,2014 OCT 27,14:45:35,240.68,-16.41,266.32,49.03,172.07,208849950.7,32,222.0,
156,2014 OCT 27,17:03:43,2014 OCT 27,19:21:58,173.46,-16.45,198.79,49.15,171.97,208831824.4,32,222.1,
157,2014 OCT 27,21:40:09,2014 OCT 27,23:58:24,106.21,-16.49,131.17,49.28,172.29,208813761.4,32,222.2,
158,2014 OCT 28,2:16:33,2014 OCT 28,4:34:47,38.98,-16.53,63.64,49.41,171.49,208795769.5,32,222.3,
159,2014 OCT 28,6:52:56,2014 OCT 28,9:11:12,331.75,-16.57,356.06,49.54,172.44,208777848.1,32,222.4,
160,2014 OCT 28,11:29:22,2014 OCT 28,13:47:36,264.51,-16.61,288.47,49.68,172.65,208759991.5,32,222.6,
161,2014 OCT 28,16:05:44,2014 OCT 28,18:24:00,197.28,-16.65,220.93,49.83,171.95,208742209,32,222.7,
162,2014 OCT 28,20:42:09,2014 OCT 28,23:00:24,130.04,-16.68,153.35,49.91,173.04,208724491.7,32,222.8,
163,2014 OCT 29,1:18:33,2014 OCT 29,3:36:47,62.81,-16.72,85.79,50.07,172.47,208706844.8,32,222.9,
164,2014 OCT 29,5:54:55,2014 OCT 29,8:13:11,355.58,-16.76,18.24,50.18,172.52,208689269.6,32,223.0,
165,2014 OCT 29,10:31:20,2014 OCT 29,12:49:35,288.35,-16.80,310.64,50.32,173.42,208671760.4,32,223.2,
166,2014 OCT 29,15:07:44,2014 OCT 29,17:25:58,221.12,-16.84,243.07,50.48,172.53,208654322.3,32,223.3,
167,2014 OCT 29,19:44:06,2014 OCT 29,22:02:21,153.89,-16.88,175.54,50.56,173.41,208636954.8,32,223.4,
168,2014 OCT 30,0:20:30,2014 OCT 30,2:38:44,86.66,-16.91,107.94,50.72,173.19,208619655.2,32,223.5,
169,2014 OCT 30,4:56:51,2014 OCT 30,7:15:05,19.43,-16.95,40.42,50.82,172.50,208602428,32,223.6,
170,2014 OCT 30,9:33:14,2014 OCT 30,11:51:28,312.21,-16.99,332.83,50.96,173.76,208585269.7,32,223.7,
171,2014 OCT 30,14:09:38,2014 OCT 30,16:27:50,244.97,-17.03,265.25,51.11,173.33,208568179.4,32,223.9,
172,2014 OCT 30,18:45:57,2014 OCT 30,21:04:11,177.76,-17.07,197.73,51.23,173.22,208551163.8,32,224.0,
173,2014 OCT 30,23:22:21,2014 OCT 31,1:40:35,110.53,-17.10,130.11,51.36,173.56,208534213.4,32,224.1,
174,2014 OCT 31,3:58:43,2014 OCT 31,6:16:56,43.30,-17.14,62.59,51.48,172.76,208517335.2,32,224.2,
175,2014 OCT 31,8:35:03,2014 OCT 31,10:53:18,336.08,-17.18,355.00,51.61,173.71,208500528.8,32,224.3,
176,2014 OCT 31,13:11:27,2014 OCT 31,15:29:40,268.85,-17.22,287.42,51.75,173.92,208483788.9,32,224.4,
177,2014 OCT 31,17:47:47,2014 OCT 31,20:06:01,201.64,-17.25,219.87,51.90,173.20,208467124.1,32,224.6,
178,2014 OCT 31,22:24:10,2014 NOV 1,0:42:23,134.41,-17.29,152.29,51.98,174.30,208450526.2,32,224.7,
179,2014 NOV 1,3:00:31,2014 NOV 1,5:18:44,67.18,-17.33,84.74,52.13,173.74,208433999.8,32,224.8,
180,2014 NOV 1,7:36:51,2014 NOV 1,9:55:05,359.97,-17.37,17.18,52.24,173.77,208417546.4,32,224.9,
181,2014 NOV 1,12:13:14,2014 NOV 1,14:31:27,292.74,-17.40,309.59,52.39,174.66,208401160.4,32,225.0,
182,2014 NOV 1,16:49:35,2014 NOV 1,19:07:48,225.52,-17.44,242.02,52.54,173.75,208384846.9,32,225.2,
183,2014 NOV 1,21:25:55,2014 NOV 1,23:44:08,158.31,-17.48,174.49,52.62,174.63,208368605.2,32,225.3,
184,2014 NOV 2,2:02:17,2014 NOV 2,4:20:29,91.08,-17.52,106.89,52.78,174.42,208352432.8,32,225.4,
185,2014 NOV 2,6:38:36,2014 NOV 2,8:56:48,23.87,-17.55,39.37,52.88,173.71,208336334,32,225.5,
186,2014 NOV 2,11:14:56,2014 NOV 2,13:33:09,316.65,-17.59,331.78,53.02,174.98,208320305.4,32,225.6,
187,2014 NOV 2,15:51:17,2014 NOV 2,18:09:29,249.43,-17.63,264.20,53.17,174.54,208304346.3,32,225.8,
188,2014 NOV 2,20:27:34,2014 NOV 2,22:45:48,182.23,-17.66,196.68,53.28,174.41,208288462.9,32,225.9,
189,2014 NOV 3,1:03:56,2014 NOV 3,3:22:09,115.00,-17.70,129.05,53.41,174.79,208272646.4,32,226.0,
190,2014 NOV 3,5:40:16,2014 NOV 3,7:58:27,47.79,-17.74,61.53,53.53,174.00,208256903.3,32,226.1,
191,2014 NOV 3,10:16:33,2014 NOV 3,12:34:47,340.58,-17.77,353.95,53.66,174.93,208241233.4,32,226.2,
192,2014 NOV 3,14:52:55,2014 NOV 3,17:11:06,273.36,-17.81,286.36,53.80,175.15,208225631.5,32,226.4,
193,2014 NOV 3,19:29:12,2014 NOV 3,21:47:25,206.16,-17.85,218.82,53.95,174.39,208210105.8,32,226.5,
194,2014 NOV 4,0:05:32,2014 NOV 4,2:23:44,138.94,-17.88,151.24,54.03,175.51,208194648.5,32,226.6,
195,2014 NOV 4,4:41:51,2014 NOV 4,7:00:02,71.73,-17.92,83.68,54.18,174.96,208179263.9,32,226.7,
196,2014 NOV 4,9:18:08,2014 NOV 4,11:36:21,4.53,-17.96,16.13,54.28,174.96,208163953.4,32,226.8,
197,2014 NOV 4,13:54:28,2014 NOV 4,16:12:40,297.31,-17.99,308.54,54.43,175.86,208148711.8,32,227.0,
198,2014 NOV 4,18:30:46,2014 NOV 4,20:48:58,230.11,-18.03,240.97,54.58,174.93,208133543.7,32,227.1,
199,2014 NOV 4,23:07:04,2014 NOV 5,1:25:15,162.90,-18.06,173.45,54.66,175.80,208118448.9,32,227.2,
200,2014 NOV 5,3:43:22,2014 NOV 5,6:01:34,95.69,-18.10,105.84,54.81,175.60,208103424.7,32,227.3,
201,2014 NOV 5,8:19:39,2014 NOV 5,10:37:50,28.49,-18.14,38.33,54.92,174.87,208088474.9,32,227.5,
202,2014 NOV 5,12:55:56,2014 NOV 5,15:14:08,321.29,-18.17,330.73,55.05,176.15,208073596.8,32,227.6,
203,2014 NOV 5,17:32:15,2014 NOV 5,19:50:25,254.08,-18.21,263.15,55.20,175.70,208058789.4,32,227.7,
204,2014 NOV 5,22:08:29,2014 NOV 6,0:26:41,186.89,-18.24,195.63,55.31,175.55,208044058.7,32,227.8,
205,2014 NOV 6,2:44:49,2014 NOV 6,5:03:00,119.67,-18.28,128.00,55.44,175.97,208029396.4,32,227.9,
206,2014 NOV 6,7:21:06,2014 NOV 6,9:39:16,52.47,-18.32,60.48,55.56,175.18,208014808.3,32,228.1,
207,2014 NOV 6,11:57:21,2014 NOV 6,14:15:33,345.28,-18.35,352.90,55.68,176.09,208000294.6,32,228.2,
208,2014 NOV 6,16:33:40,2014 NOV 6,18:51:50,278.07,-18.39,285.31,55.82,176.32,207985850.1,32,228.3,
209,2014 NOV 6,21:09:55,2014 NOV 6,23:28:06,210.87,-18.42,217.75,55.97,175.53,207971482.6,32,228.4,
210,2014 NOV 7,1:46:13,2014 NOV 7,4:04:24,143.67,-18.46,150.18,56.04,176.66,207957185,32,228.5,
211,2014 NOV 7,6:22:30,2014 NOV 7,8:40:40,76.46,-18.49,82.62,56.20,176.12,207942961.1,32,228.7,
212,2014 NOV 7,10:58:44,2014 NOV 7,13:16:56,9.27,-18.53,15.07,56.30,176.07,207928812.3,32,228.8,
213,2014 NOV 7,15:35:02,2014 NOV 7,17:53:13,302.07,-18.56,307.47,56.44,176.99,207914733.9,32,228.9,
214,2014 NOV 7,20:11:19,2014 NOV 7,22:29:29,234.87,-18.60,239.89,56.59,176.04,207900730,32,229.0,
215,2014 NOV 8,0:47:34,2014 NOV 8,3:05:45,167.67,-18.63,172.37,56.67,176.89,207886800.4,32,229.1,
216,2014 NOV 8,5:23:51,2014 NOV 8,7:42:01,100.47,-18.67,104.75,56.82,176.70,207872942.7,32,229.3,
217,2014 NOV 8,10:00:05,2014 NOV 8,12:18:15,33.28,-18.70,37.24,56.92,175.95,207859160.4,32,229.4,
218,2014 NOV 8,14:36:20,2014 NOV 8,16:54:31,326.09,-18.74,329.64,57.05,177.23,207845451,32,229.5,
219,2014 NOV 8,19:12:37,2014 NOV 8,21:30:46,258.88,-18.77,262.05,57.20,176.78,207831813.7,32,229.6,
220,2014 NOV 8,23:48:50,2014 NOV 9,2:07:01,191.70,-18.81,194.53,57.31,176.61,207818253.7,32,229.7,
221,2014 NOV 9,4:25:07,2014 NOV 9,6:43:17,124.50,-18.84,126.89,57.43,177.07,207804763.6,32,229.9,
222,2014 NOV 9,9:01:22,2014 NOV 9,11:19:31,57.31,-18.88,59.37,57.56,176.29,207791348.8,32,230.0,
223,2014 NOV 9,13:37:35,2014 NOV 9,15:55:46,350.12,-18.91,351.78,57.67,177.18,207778009.3,32,230.1,
224,2014 NOV 9,18:13:52,2014 NOV 9,20:32:01,282.92,-18.94,284.18,57.81,177.42,207764740.5,32,230.2,
225,2014 NOV 9,22:50:05,2014 NOV 10,1:08:15,215.74,-18.98,216.62,57.96,176.59,207751549.3,32,230.3,
226,2014 NOV 10,3:26:21,2014 NOV 10,5:44:31,148.54,-19.01,149.05,58.03,177.74,207738429.5,32,230.5,
227,2014 NOV 10,8:02:36,2014 NOV 10,10:20:45,81.35,-19.05,81.47,58.18,177.21,207725384.4,32,230.6,
228,2014 NOV 10,12:38:49,2014 NOV 10,14:56:59,14.16,-19.08,13.92,58.28,177.13,207712415.2,32,230.7,
229,2014 NOV 10,17:15:05,2014 NOV 10,19:33:14,306.96,-19.11,306.32,58.42,178.06,207699517.9,32,230.8,